Location: Budapest
(47.4979°N, 19.0402°E)
Time: 17:03:32
(UTC+02:00)

Vanguard 1 - All Passes

Search period start: 23 October 2017 00:00
Search period end: 01 November 2017 23:00
Orbit: 650 x 3834 km, 34.3° (Epoch: 21 October)

Date Brightness Start Highest point End Pass type
(mag) Time Alt. Az. Time Alt. Az. Time Alt. Az.
23 Oct - 01:33:18 10° SW 01:46:20 50° SSE 02:06:58 10° E visible
23 Oct - 03:53:40 10° W 04:10:19 52° S 04:32:21 10° SE visible
23 Oct - 06:16:50 10° W 06:34:28 35° SW 06:53:19 10° SSE visible
23 Oct - 08:49:00 10° WSW 08:56:19 12° SW 09:03:29 10° SW daylight
23 Oct - 23:35:51 10° SSW 23:45:31 34° SSE 00:01:02 10° E visible
24 Oct - 01:53:59 10° WSW 02:07:19 52° S 02:28:20 10° ESE visible
24 Oct - 04:14:45 10° W 04:31:25 48° SSW 04:53:03 10° SE visible
24 Oct - 06:38:42 10° W 06:55:10 29° SW 07:12:37 10° S visible
24 Oct - 21:42:16 10° SSE 21:46:55 14° SE 21:52:45 10° ESE night (unlit)
24 Oct - 23:56:01 10° SW 00:06:04 39° SSE 00:22:43 10° E visible
25 Oct - 02:14:46 10° WSW 02:28:23 53° S 02:49:35 10° ESE visible
25 Oct - 04:35:55 10° W 04:52:28 44° SSW 05:13:30 10° SE visible
25 Oct - 07:01:02 10° W 07:15:46 23° SW 07:31:13 10° S daylight
25 Oct - 22:00:45 10° S 22:07:01 19° SE 22:15:50 10° E night (unlit)
26 Oct - 00:16:23 10° SW 00:26:46 44° SSE 00:44:16 10° E visible
26 Oct - 02:35:37 10° WSW 02:49:28 52° S 03:10:42 10° ESE visible
26 Oct - 04:57:14 10° W 05:13:27 39° SSW 05:33:37 10° SSE visible
26 Oct - 07:24:19 10° W 07:36:17 18° SW 07:48:43 10° SSW daylight
26 Oct - 22:20:08 10° S 22:27:16 25° SE 22:38:05 10° E night (unlit)
27 Oct - 00:36:55 10° SW 00:47:35 47° SSE 01:05:44 10° E visible
27 Oct - 02:56:33 10° WSW 03:10:34 49° S 03:31:39 10° SE visible
27 Oct - 05:18:44 10° W 05:34:22 33° SSW 05:53:20 10° SSE visible
27 Oct - 07:50:02 10° WSW 07:56:43 12° SW 08:03:33 10° SW daylight
27 Oct - 22:39:58 10° SSW 22:47:38 30° SE 22:59:57 10° E night (unlit)
28 Oct - 00:57:34 10° WSW 01:08:30 49° S 01:27:07 10° ESE visible
28 Oct - 03:17:34 10° W 03:31:40 46° SSW 03:52:22 10° SE visible
28 Oct - 05:40:34 10° W 05:55:12 28° SW 06:12:32 10° SSE visible
28 Oct - 20:49:20 10° SE 20:49:36 10° SE 20:49:52 10° SE night (unlit)
28 Oct - 23:00:07 10° SW 23:08:09 35° SSE 23:21:37 10° E visible
29 Oct - 01:18:18 10° WSW 01:29:28 49° S 01:48:23 10° ESE visible
29 Oct - 02:38:41 10° W 02:52:43 41° SSW 03:12:48 10° SE visible
29 Oct - 05:02:55 10° W 05:15:57 22° SW 05:30:57 10° S visible
29 Oct - 20:05:31 10° SSE 20:09:44 15° SE 20:15:09 10° ESE night (unlit)
29 Oct - 22:20:27 10° SW 22:28:48 39° SSE 22:43:09 10° E visible
30 Oct - 00:39:07 10° WSW 00:50:30 48° S 01:09:30 10° ESE visible
30 Oct - 02:59:57 10° W 03:13:45 36° SSW 03:32:53 10° SSE visible
30 Oct - 05:26:19 10° WSW 05:36:38 16° SW 05:48:06 10° SSW visible
30 Oct - 20:24:39 10° S 20:29:58 20° SE 20:37:34 10° E night (unlit)
30 Oct - 22:40:57 10° SW 22:49:34 42° SSE 23:04:35 10° ESE visible
31 Oct - 01:00:01 10° WSW 01:11:33 45° S 01:30:26 10° SE visible
31 Oct - 03:21:27 10° W 03:34:43 31° SSW 03:52:31 10° SSE visible
31 Oct - 05:53:20 10° WSW 05:57:16 11° SW 06:01:22 10° SW visible
31 Oct - 20:44:24 10° SSW 20:50:21 25° SE 20:59:27 10° E night (unlit)
31 Oct - 23:01:34 10° WSW 23:10:25 44° S 23:25:55 10° ESE visible
01 Nov - 01:20:59 10° WSW 01:32:36 42° SSW 01:51:07 10° SE visible
01 Nov - 03:43:17 10° W 03:55:39 25° SW 04:11:33 10° S visible
01 Nov - 21:04:29 10° SSW 21:10:51 30° SSE 21:21:04 10° E night (unlit)
